Вернуться в каталог

YUXING-3 06

АктивенВоенныеSSO
NORAD 68199·PAYLOAD·🇨🇳 China

Запущен Mar 16, 2026 с Jiuquan Satellite Launch Center

Loading…

Ближайшие Пролёты (ближайшие 24 часа)

TLE

СвежийSource: Space-Track

Эпоха: Sep 14, 2026, 18:02 UTC

1 68199U 26052B   26257.75199330  .00003895  00000-0  23329-3 0  9994
2 68199  97.5260 331.1642 0012382   8.8718 351.2728 15.11529698 27578

Отслеживайте YUXING-3 06 в реальном времени с AllMySat

Download on the App Store